Terminal Aerodrome Forecast
Issued by NWS Cleveland, OH

Home | Current Version | Previous Version | Text Only | Print | Product List | Glossary On
Versions: 1 2 3 4 5 6 7 8 9 10 11 12 13 14 15 16
256
FTUS41 KCLE 292340
TAFYNG
TAF
KYNG 292340Z 3000/3024 08010KT P6SM VCSH BKN018
      TEMPO 3000/3003 08012G20KT 4SM -TSRA BR OVC008CB
     FM300700 09014KT 5SM BR OVC008
     FM301400 09012G22KT P6SM BKN012 OVC025
     FM302000 10010KT P6SM -SHRA BKN030=

USA.gov is the U.S. government's official web portal to all federal, state and local government web resources and services.